{"data":{"norad_id":66563,"intl_designator":"2025-268G","name":"STARLINK-35437","alt_names":[],"object_type":"PAYLOAD","status":"ACTIVE","operator":null,"country":"US","launch_date":"2025-11-21","launch_site_code":"AFETR","launch_vehicle":null,"mission":null,"orbit_class":"UNKNOWN","rcs_meters":null,"size_class":null,"mass_kg":null,"dimensions":null,"purposes":["comms"],"wikipedia_slug":null,"has_3d_model":false,"image_url":null,"decayed_at":null,"tle_current":{"epoch":"2026-09-20T05:34:04.758528Z","epoch_age_seconds":112504,"freshness":"FRESH","line1":"1 66563U 25268G   26263.23199952  .00007737  00000+0  29032-3 0  9990","line2":"2 66563  43.0049 328.2919 0001807 281.3189  78.7459 15.27586599 47716","mean_motion":15.27586599,"eccentricity":0.0001807,"inclination_deg":43.0049,"raan_deg":328.2919,"arg_perigee_deg":281.3189,"mean_anomaly_deg":78.7459,"bstar":0.00029032,"rev_number":4771,"period_min":94.266341492041,"perigee_km":481.78952357383,"apogee_km":484.26914908778,"semimajor_km":6861.1663363308,"source":"CELESTRAK","updated_at":"2026-09-21T09:00:35.970717Z"}}}